Theta_e
292 292 293 298 300 301 304 304 312 310 310 312 311 310 312 312 312 313 313 312 314 316 317 316 315 315 315 314 314 316 317 317 315 318 318 316 313 307 304 301 301 301 301 299
293 295 297 297 298 300 301 302 306 311 310 310 311 310 310 311 311 313 313 312 313 315 315 315 315 314 314 314 312 313 318 315 312 316 318 315 311 305 302 301 301 300 298 297
292 294 294 301 302 301 304 306 308 310 310 309 309 309 310 310 311 313 313 312 313 314 315 315 314 314 313 312 312 312 314 310 313 314 315 312 308 304 301 301 301 299 296 294
292 293 299 300 302 302 305 305 305 308 309 309 309 309 310 310 310 312 311 311 311 312 313 313 313 313 313 312 311 312 307 308 311 313 313 310 306 302 300 301 299 296 293 292
293 298 297 298 300 301 302 305 301 301 303 305 306 308 309 308 309 311 311 311 311 311 312 313 312 312 312 309 309 308 306 308 310 312 311 308 302 302 299 299 296 293 290 290
292 295 297 299 297 298 300 308 299 298 300 302 304 308 310 308 309 311 310 309 311 311 310 310 308 310 310 309 308 307 308 309 307 310 310 302 302 297 298 294 292 290 290 289
292 294 295 294 296 298 304 304 296 296 297 299 302 305 305 308 309 308 307 307 308 307 307 307 306 306 307 305 303 306 307 306 306 307 306 303 296 296 293 291 290 289 289 289
291 293 294 293 295 297 294 292 293 294 295 297 298 302 306 303 304 304 303 302 305 304 302 301 300 302 300 299 299 300 301 305 305 302 300 294 296 291 291 290 289 289 288 288
294 294 295 292 291 290 289 290 292 293 294 298 300 298 298 298 299 299 298 299 299 300 296 296 296 297 298 295 298 297 302 301 299 295 293 291 290 290 290 289 289 289 288 287
292 293 291 290 289 289 289 290 291 292 294 296 296 295 294 294 293 293 294 295 295 295 293 292 292 293 295 295 297 301 299 296 292 290 288 289 291 289 290 291 288 287 287 286
290 291 289 291 288 288 288 289 290 291 293 294 293 291 291 291 291 290 290 290 292 292 291 290 291 291 289 291 296 294 290 289 290 291 291 289 291 291 288 287 287 287 286 286
289 288 288 288 288 288 288 288 289 291 291 290 290 290 289 289 289 289 289 289 290 290 290 289 291 291 292 294 294 291 290 289 289 291 291 291 288 287 286 286 286 286 286 285
287 287 287 287 287 287 288 288 288 289 288 288 288 288 288 288 288 288 288 289 288 288 290 291 291 290 289 290 291 291 291 291 291 289 288 288 287 286 286 284 285 285 284 283
287 287 288 287 287 287 287 287 287 287 287 288 288 287 287 287 288 288 288 288 289 290 290 291 291 291 291 291 291 292 290 288 291 290 287 286 286 285 285 284 283 283 283 283
286 287 286 286 286 287 287 287 287 286 286 286 287 287 287 287 287 288 289 289 289 289 288 288 287 287 288 288 289 291 291 290 287 286 286 285 285 285 284 283 283 283 282 282
286 286 286 286 286 286 286 286 286 285 285 285 286 287 288 287 287 287 287 288 289 288 288 287 287 288 291 292 291 288 287 286 286 286 285 285 284 284 283 283 283 282 281 281
285 285 285 285 285 285 285 285 285 285 286 287 287 288 289 289 289 289 288 287 287 289 291 291 290 288 287 286 286 286 286 285 285 285 284 284 283 283 283 282 281 281 280 281
284 284 284 284 285 285 286 287 287 287 287 287 287 287 287 287 287 288 288 290 290 287 286 286 286 285 285 285 285 285 285 285 284 284 283 283 283 283 282 281 281 281 281 281
285 285 285 285 286 285 285 286 286 286 287 288 289 288 288 288 288 287 285 285 285 285 284 284 284 285 285 285 285 285 284 284 283 283 283 282 282 281 281 281 281 281 280 280
285 285 285 285 286 286 285 286 288 288 287 288 286 285 285 285 284 285 285 285 284 284 283 284 284 284 284 284 284 284 283 283 283 283 282 282 281 281 281 281 280 280 279 279
283 283 284 284 284 283 283 283 284 284 284 284 284 284 283 283 283 284 284 284 283 283 283 283 283 283 283 283 283 283 283 283 283 282 281 281 281 281 280 280 280 279 279 278
281 281 281 281 282 281 282 282 282 282 282 283 283 283 283 283 283 283 283 283 282 282 282 282 282 282 283 283 283 282 282 282 282 281 281 281 281 281 281 280 280 279 278 278
281 281 282 282 282 282 282 282 282 282 282 282 282 282 282 282 282 282 282 282 282 282 282 282 282 282 282 282 282 282 282 282 281 281 280 280 281 280 280 280 279 278 278 278
281 281 281 281 281 282 282 281 281 282 282 282 282 282 282 282 282 282 282 281 281 281 282 282 282 282 282 282 282 282 282 281 281 280 280 280 280 280 279 279 279 279 279 278
280 280 280 281 281 280 281 281 281 281 281 281 281 282 281 281 281 281 281 281 281 281 281 281 281 281 282 282 282 281 281 281 280 280 279 279 279 279 279 279 279 279 278 278
280 279 279 279 280 280 280 280 280 280 280 280 281 281 281 281 281 281 281 281 281 281 281 281 281 281 281 281 281 281 280 280 280 279 279 279 280 280 279 279 279 279 279 278
279 279 279 279 279 279 279 280 280 280 280 280 280 280 280 280 280 280 280 281 281 281 281 281 281 281 280 280 280 280 280 280 280 279 279 279 279 279 279 278 278 278 278 278
Wind_Speed
11 19 18 17 17 17 10 10 11 16 20 13 13 16 7 4 11 11 9 1 10 22 31 35 39 41 45 50 57 58 58 44 53 54 51 50 44 42 40 36 33 29 25 22
8 11 12 17 17 16 16 14 14 19 17 8 8 14 11 17 21 7 2 2 10 20 28 33 37 39 43 51 53 59 51 51 55 56 53 50 46 44 41 37 33 28 25 20
6 10 16 6 1 12 7 9 12 15 19 9 13 14 15 20 9 8 4 6 13 17 24 30 37 44 47 52 54 54 56 56 59 57 55 50 47 45 42 38 34 29 24 19
6 10 3 4 8 10 9 13 8 12 11 9 11 17 18 14 11 10 7 10 13 19 24 29 36 44 49 52 52 57 54 57 58 56 54 50 49 45 42 36 31 26 22 17
3 4 7 3 12 12 11 7 15 15 15 16 19 12 16 11 11 12 10 10 14 20 28 33 39 44 48 50 53 54 54 54 54 57 55 51 49 44 40 34 29 24 18 14
4 4 3 8 16 23 9 3 16 19 17 18 17 7 9 4 9 13 13 14 19 20 28 33 37 42 46 47 46 48 50 52 58 56 51 51 45 43 35 30 25 20 15 11
9 3 6 13 19 22 1 5 27 24 22 21 11 13 17 2 9 13 14 17 19 22 26 29 33 38 42 45 47 50 52 57 56 53 50 46 43 36 32 26 21 16 12 9
4 4 5 22 8 8 14 25 24 28 23 26 22 17 2 8 13 16 17 19 20 21 21 23 27 33 38 41 44 49 56 56 53 50 45 43 36 32 25 20 16 14 10 7
4 3 8 17 9 14 21 22 25 27 27 21 6 6 9 15 18 19 20 21 20 24 26 24 25 32 39 41 47 52 52 51 48 44 39 35 31 25 20 17 12 10 10 8
8 0 15 19 17 24 24 21 23 20 16 5 7 12 18 23 23 25 23 24 23 27 27 28 29 34 41 47 50 53 51 46 42 39 36 28 21 19 14 13 14 12 10 9
11 9 20 8 27 28 23 16 12 9 6 7 13 17 22 25 26 28 28 28 27 31 34 36 38 44 44 50 53 53 49 43 37 32 28 26 18 16 17 15 11 10 10 9
4 21 14 25 23 21 17 13 9 7 13 14 18 24 25 26 27 26 27 28 32 37 40 42 45 44 41 41 43 44 41 36 31 26 22 21 22 20 15 13 11 10 8 7
15 20 18 17 9 12 9 10 12 15 16 21 22 25 28 31 29 32 34 36 38 43 47 48 47 44 38 36 35 34 33 29 25 25 22 19 19 18 19 15 12 10 8 7
16 14 8 7 3 8 12 14 17 20 23 27 29 30 32 35 34 36 39 43 47 48 47 45 43 39 35 32 28 27 27 26 21 20 21 21 19 17 15 14 13 11 7 4
7 3 6 6 8 12 14 17 23 27 30 33 32 35 36 41 45 47 46 46 45 44 41 37 36 34 29 27 27 24 20 21 22 22 20 19 18 17 16 14 11 8 5 3
13 15 16 18 18 19 21 23 27 29 34 37 42 45 47 47 46 45 42 40 40 38 34 32 31 29 24 19 18 21 21 21 21 21 20 19 17 16 14 12 9 6 4 2
17 18 22 24 26 28 28 29 32 34 38 42 43 43 42 40 38 37 35 33 33 31 28 25 23 21 20 19 19 22 23 22 20 20 19 18 16 14 11 9 8 6 4 3
29 28 29 28 31 34 37 39 40 40 40 39 38 38 37 37 36 33 31 27 25 25 24 22 21 21 20 19 19 19 19 20 19 18 18 16 14 12 10 8 7 6 4 4
33 34 33 35 35 34 34 35 34 33 33 32 31 31 30 29 27 26 24 24 24 24 21 18 17 17 18 18 17 17 17 19 19 18 16 13 12 10 8 7 6 5 4 4
36 33 31 31 30 30 28 27 28 28 27 25 26 26 25 23 22 21 19 22 20 19 16 16 15 16 16 16 14 16 16 16 16 15 12 11 9 8 7 7 6 5 4 3
31 30 31 30 28 26 26 25 24 24 22 21 22 22 22 20 18 17 17 19 17 14 13 13 13 14 13 13 12 13 13 14 13 11 11 9 8 8 8 6 4 4 4 4
24 26 25 24 24 24 23 22 21 20 20 19 19 18 17 17 15 15 15 14 12 11 11 11 11 11 11 11 11 12 12 11 10 9 8 8 7 7 6 4 4 3 3 3
21 21 20 20 20 19 17 18 17 16 15 15 14 13 12 13 12 11 12 10 9 10 9 10 10 7 8 9 9 9 9 8 8 7 7 7 6 6 5 4 3 1 2 2
19 18 18 16 14 14 17 16 14 15 14 12 11 11 10 9 8 8 9 9 8 9 12 12 6 4 5 5 6 7 7 7 8 8 8 7 5 5 5 4 2 1 1 3
16 16 15 14 15 17 15 14 12 11 10 10 10 9 8 6 6 6 6 5 4 8 9 9 5 5 4 4 5 6 6 7 8 8 9 7 5 4 4 4 4 2 2 2
14 16 16 16 15 13 12 10 9 9 10 9 9 8 6 5 4 3 3 2 2 5 10 10 7 1 3 2 2 6 6 7 7 7 7 6 5 5 4 3 3 3 2 2
13 13 12 12 11 10 10 9 7 7 7 7 6 5 4 3 2 1 1 2 3 5 10 11 10 5 4 4 3 5 7 8 8 8 8 7 6 5 4 4 3 4 2 2
Wind_Direction
285 278 277 275 280 287 285 283 238 230 227 233 267 298 296 322 332 337 352 27 185 200 194 194 191 189 187 190 195 202 197 201 207 203 201 201 197 192 189 191 194 198 201 204
272 270 262 287 297 292 274 264 261 252 258 259 279 282 278 280 298 294 335 184 170 183 181 183 184 184 184 187 192 198 192 202 201 200 195 195 191 187 186 188 193 196 199 206
289 319 314 312 46 327 294 255 244 241 251 260 264 264 267 276 281 247 189 178 157 183 183 180 178 180 181 184 191 192 190 196 200 195 189 187 185 184 185 186 189 194 199 205
278 302 279 61 243 286 332 31 339 283 285 272 264 264 275 273 271 221 182 166 155 168 176 181 181 182 185 186 188 188 185 190 193 188 184 182 181 180 182 184 187 191 196 202
244 258 323 298 7 10 357 52 33 357 346 339 301 268 271 255 237 216 191 195 182 193 188 183 185 186 186 183 183 184 186 188 186 182 179 178 177 177 178 181 183 188 193 196
205 251 211 52 338 324 279 207 13 346 337 329 326 237 258 258 212 193 182 180 185 188 190 186 182 184 186 182 185 183 185 182 178 176 176 173 172 173 174 178 181 183 187 189
243 305 286 360 334 317 300 0 324 325 324 320 311 302 322 268 157 176 162 162 173 180 184 185 184 185 180 178 179 181 178 175 169 168 170 170 171 168 170 172 175 176 180 181
235 252 267 8 347 21 318 315 310 314 322 315 306 299 218 131 142 145 141 148 167 167 167 173 179 185 172 171 168 169 168 163 162 162 159 162 165 163 163 168 172 174 173 178
251 301 339 357 356 332 325 314 313 316 322 322 355 76 109 113 124 129 138 142 152 155 145 150 166 174 167 156 161 158 153 150 148 152 155 154 156 153 155 160 167 178 176 172
321 171 335 315 350 348 340 326 315 319 322 339 94 103 103 109 107 114 128 134 146 148 144 135 144 150 147 148 151 150 144 141 143 146 143 139 143 150 153 180 175 168 162 158
285 297 337 104 340 338 329 331 335 344 27 87 108 101 111 111 112 112 120 122 143 142 134 132 140 137 140 142 142 134 133 138 139 140 141 139 143 164 168 159 158 157 153 146
294 318 306 302 316 330 336 350 8 52 73 83 101 105 111 103 109 123 125 127 129 131 130 133 134 129 131 133 132 130 128 132 131 130 136 154 159 151 146 151 149 146 144 135
283 294 297 326 319 342 7 38 62 76 86 91 91 101 108 109 111 115 121 124 124 124 123 121 118 114 115 121 126 125 125 130 140 148 145 153 153 153 145 130 135 129 127 127
298 285 273 13 8 41 65 75 83 89 95 104 112 111 111 110 117 118 119 122 123 121 119 118 118 119 121 124 126 125 134 137 139 148 154 148 148 148 140 134 133 133 129 104
14 89 107 101 83 82 92 101 95 92 98 101 109 110 112 109 110 113 116 115 112 109 108 113 117 121 127 128 125 127 138 148 148 143 143 145 146 144 140 138 132 120 107 71
89 99 101 92 92 90 93 93 93 93 98 101 105 107 109 108 109 109 110 113 113 115 119 119 117 119 122 127 138 144 140 137 137 139 141 142 141 138 136 132 124 118 111 72
69 66 79 79 85 87 87 91 93 95 100 103 108 111 110 109 109 111 111 110 109 109 109 109 116 127 135 137 138 136 134 132 138 140 139 138 137 135 131 128 132 120 105 64
85 85 87 87 89 93 95 96 98 98 98 100 103 106 109 112 111 112 111 109 109 112 116 121 124 126 126 128 131 133 136 137 138 138 137 136 134 136 135 122 113 106 97 51
93 94 95 95 100 102 105 107 107 110 113 113 109 104 102 102 105 110 116 117 113 111 108 112 115 120 123 124 129 133 137 140 140 138 140 139 136 128 120 115 112 104 86 62
89 92 93 94 97 95 94 95 98 98 100 105 109 109 105 102 104 108 111 105 101 102 107 110 116 122 127 128 132 134 137 138 138 137 136 134 131 125 121 123 119 103 85 50
74 76 79 81 83 86 87 91 95 96 101 106 106 104 104 105 105 106 106 104 101 101 105 110 115 119 126 130 133 137 140 143 144 142 141 139 135 136 137 128 114 94 56 45
70 73 76 78 79 79 79 82 86 91 93 94 95 99 103 102 103 105 100 101 105 109 107 113 119 121 123 131 138 142 144 145 147 147 146 145 144 144 147 148 135 91 60 39
66 67 69 69 68 72 77 76 77 80 85 89 94 97 96 99 100 102 101 96 106 114 110 108 108 120 124 135 144 148 149 151 154 156 157 154 155 164 172 170 156 118 38 16
64 64 65 68 76 80 74 69 69 71 72 79 84 88 91 91 93 100 104 96 110 121 122 117 143 93 128 140 150 157 162 167 171 176 178 175 176 182 186 183 182 184 12 4
60 60 60 61 63 61 61 59 58 67 70 72 74 76 79 88 99 107 107 111 119 143 139 151 168 66 94 136 161 173 180 182 185 188 187 188 192 195 197 203 224 250 287 326
52 48 44 42 46 49 52 53 58 66 63 63 66 68 71 83 94 107 115 126 127 157 169 178 197 68 53 52 187 194 193 190 190 189 191 200 209 211 209 222 239 247 268 327
46 46 41 39 42 46 46 47 54 59 50 47 48 49 51 58 65 101 121 147 164 158 178 196 211 243 302 314 234 211 204 203 207 209 214 219 222 220 231 250 244 245 264 289